This is the latest recevied weather packets stored in our database for station/object KK6LZB. If no packets are shown the sender has not sent any weather packets the latest 10 day(s).
| Time | Temp. | Humidity | Pressure | Rain* | Wind** | Luminosity | Snow |
|---|---|---|---|---|---|---|---|
| 1777940076 | 17.22° C | 74% | 1017 hPa | 0 mm | - | 121 W/m² | - |
| 1777939773 | 17.22° C | 74% | 1017.4 hPa | 0 mm | - | 140 W/m² | - |
| 1777939471 | 17.78° C | 73% | 1017.2 hPa | 0 mm | - | 151 W/m² | - |
| 1777939167 | 17.78° C | 71% | 1017 hPa | 0 mm | - | 180 W/m² | - |
| 1777938865 | 17.78° C | 70% | 1017.1 hPa | 0 mm | - | 171 W/m² | - |
| 1777938561 | 18.33° C | 70% | 1017.1 hPa | 0 mm | - | 159 W/m² | - |
| 1777938259 | 18.33° C | 69% | 1017.1 hPa | 0 mm | - | 216 W/m² | - |
| 1777937955 | 18.33° C | 69% | 1017.2 hPa | 0 mm | - | 218 W/m² | - |
| 1777937650 | 18.33° C | 70% | 1016.9 hPa | 0 mm | - | 227 W/m² | - |
| 1777937348 | 18.33° C | 70% | 1017.1 hPa | 0 mm | - | 184 W/m² | - |
| 1777937044 | 18.33° C | 69% | 1017 hPa | 0 mm | - | 171 W/m² | - |
| 1777936741 | 19.44° C | 66% | 1017 hPa | 0 mm | - | 331 W/m² | - |
| 1777936438 | 19.44° C | 66% | 1017 hPa | 0 mm | - | 204 W/m² | - |
| 1777936134 | 19.44° C | 66% | 1016.8 hPa | 0 mm | - | 271 W/m² | - |
| 1777935832 | 18.33° C | 68% | 1016.8 hPa | 0 mm | - | 631 W/m² | - |
| 1777935530 | 18.33° C | 70% | 1017 hPa | 0 mm | - | 286 W/m² | - |
| 1777935226 | 18.33° C | 68% | 1016.9 hPa | 0 mm | - | 440 W/m² | - |
| 1777934924 | 18.33° C | 68% | 1017.1 hPa | 0 mm | - | 329 W/m² | - |
| 1777934620 | 18.33° C | 71% | 1017.1 hPa | 0 mm | - | 334 W/m² | - |
| 1777934317 | 18.33° C | 71% | 1017.1 hPa | 0 mm | - | 286 W/m² | - |
| 1777934013 | 18.33° C | 70% | 1017.2 hPa | 0 mm | - | 285 W/m² | - |
| 1777933710 | 18.33° C | 70% | 1017.2 hPa | 0 mm | - | 381 W/m² | - |
| 1777933406 | 18.33° C | 68% | 1017.2 hPa | 0 mm | - | 295 W/m² | - |
| 1777933105 | 18.89° C | 70% | 1017.4 hPa | 0 mm | - | 338 W/m² | - |
| 1777932801 | 18.33° C | 65% | 1017.4 hPa | 0 mm | - | 449 W/m² | - |
* Rain latest hour (hover to see other rain measurements)
** Current wind speed in m/s (hover to see current wind gust speed)